Terug naar catalogus

STARLINK-38009

ActiefCommunicatieSSO
NORAD 69678·PAYLOAD·🇺🇸 United States

Gelanceerd Jun 25, 2026 vanaf Vandenberg Space Force Base

Loading…

Volgende Passages (komende 24 uur)

TLE

VersSource: CelesTrak SupGP

Epoch: Sep 14, 2026, 23:03 UTC

1 69678C 26145B   26257.96090278  .00087536  00000+0  27176-2 0  2577
2 69678  97.2849 104.6448 0002168  93.4438 152.2375 15.33389769    12

Volg STARLINK-38009 in realtime met AllMySat

Download on the App Store